Location: Moreno
(33.9175°N, 117.1578°W)
Time: 15:41:35
(UTC+00:00)

CZ-3 Stage 3 - Pass Details

Date: 18 April 2024
Orbit: 459 x 34974 km, 30.5° (Epoch: 19 May)

Event Time Altitude Azimuth Distance (km) Brightness Sun altitude
Exits shadow 12:05:17 10° 273° (W) 4,956 7.1 -14.2°
Maximum altitude 12:14:17 48° 202° (SSW) 1,014 3.8 -12.5°
Drops below altitude 10° 12:17:24 10° 124° (SE) 1,744 5.8 -11.9°
Sets 12:18:55 0° 117° (ESE) 2,482 6.8 -11.6°
